Regional Weather Roundup
Issued by NWS

Home | Current Version | Previous Version | Text Only | Print | Product List | Glossary On
Versions: 1 2 3 4 5 6 7 8 9 10 11 12 13 14 15 16 17 18 19 20 21 22 23 24 25 26 27
000
ASUS44 KBMX 191910
RWRAL

ALABAMA REGIONAL WEATHER ROUNDUP
NATIONAL WEATHER SERVICE BIRMINGHAM AL
200 PM CDT TUE SEP 19 2017

NOTE: "FAIR" INDICATES FEW OR NO CLOUDS BELOW 12,000 FEET
WITH NO SIGNIFICANT WEATHER AND/OR OBSTRUCTIONS TO VISIBILITY.

THE REMARK "TC" DENOTES TEMPERATURE IN DEGREES CELSIUS.

ALZ001>011-014-016>018-020-192000-
NORTH ALABAMA

CITY           SKY/WX    TMP DP  RH WIND       PRES   REMARKS
MUSCLE SHOALS  PTSUNNY   79  72  79 S10       29.98F
HUNTSVILLE     LGT RAIN  72  71  97 E7        29.98F
DECATUR        PTSUNNY   70  70 100 CALM      29.98F
HALEYVILLE     FAIR      78  75  90 VRB6      30.01S
GADSDEN        PTSUNNY   87  72  60 SE6       29.96F HX  93
$$

ALZ012-013-022-023-030>036-040>044-192000-
WEST CENTRAL ALABAMA

CITY           SKY/WX    TMP DP  RH WIND       PRES   REMARKS
TUSCALOOSA     PTSUNNY   87  74  64 VRB3      29.93F HX  95
DEMOPOLIS        N/A     90  71  52 W7        29.94F HX  95
$$

ALZ015-024>026-033>036-041>044-192000-
CENTRAL ALABAMA

CITY           SKY/WX    TMP DP  RH WIND       PRES   REMARKS
BIRMINGHAM     CLOUDY    87  71  58 S7        29.97F HX  93
MONTGOMERY     MOSUNNY   92  70  48 SW7       29.94F HX  97
SHELBY CO ARPT MOSUNNY   89  72  56 W6        29.94F HX  96
MAXWELL AFB    SUNNY     92  71  50 W3        29.93F HX  98
GREENVILLE     FAIR      88  68  51 VRB5      29.95F HX  91
SELMA          FAIR      91  72  52 W5G12     29.93F HX  98
PRATTVILLE     FAIR      90  71  52 W6        29.94F HX  96
BESSEMER       FAIR      86  72  62 NE3       29.96F HX  92
TALLADEGA      FAIR     N/A N/A N/A MISG      29.96F
PELL CITY      CLEAR     86  70  58 SW3       29.96F HX  90
MARION         MOCLDY    86  71  60 CALM      29.94F HX  92
SYLACAUGA      FAIR      91  69  48 CALM      29.95F HX  95
$$

ALZ019-021-028-029-037-038-045>048-192000-
EAST CENTRAL ALABAMA

CITY           SKY/WX    TMP DP  RH WIND       PRES   REMARKS
ANNISTON       SUNNY     87  66  49 SW3       29.96F
ALEXANDER CITY MOSUNNY   85  69  59 NW5       29.97F
AUBURN         NOT AVBL
$$

ALZ051>064-192000-
SOUTHWEST ALABAMA

CITY           SKY/WX    TMP DP  RH WIND       PRES   REMARKS
MOBILE         CLOUDY    78  74  87 CALM      29.99F
BROOKLEY FIELD CLOUDY    84  75  74 W8        29.99S HX  92
EVERGREEN      PTSUNNY   91  73  55 VRB6      29.95F HX  99
$$

ALZ049-050-065>069-192000-
SOUTHEAST ALABAMA

CITY           SKY/WX    TMP DP  RH WIND       PRES   REMARKS
DOTHAN         SUNNY     90  74  59 VRB3      29.98F HX  99
OZARK          MOSUNNY   90  71  53 W6        29.95F HX  96
TROY           LGT RAIN  81  75  82 CALM      29.97F
EUFAULA        FAIR      89  70  53 CALM      29.94F HX  94
$$




USA.gov is the U.S. government's official web portal to all federal, state and local government web resources and services.